FW6908 Weather Reports


time (UTC)temp
F
wind
direction
speed
knots
gust
knots
rain 1hr
in
rain 24hr
in
rain mn
in
humidity
%
barometer
mb
20260508181511 68 345 1.7 7.0 0.00 0.00 0.00 59 1017.7
20260508181011 68 349 3.5 7.0 0.00 0.00 0.00 59 1017.7
20260508180512 68 311 4.3 7.0 0.00 0.00 0.00 59 1017.5
20260508180011 67 316 1.7 5.2 0.00 0.00 0.00 59 1017.3
20260508175511 67 271 2.6 5.2 0.00 0.00 0.00 59 1017.0
20260508175010 67 262 1.7 6.1 0.00 0.00 0.00 59 1017.0
20260508174510 68 313 2.6 7.8 0.00 0.00 0.00 59 1017.1
20260508174010 68 280 2.6 8.7 0.00 0.00 0.00 59 1016.9
20260508173510 68 288 4.3 8.7 0.00 0.00 0.00 58 1016.8
20260508173010 68 282 4.3 7.8 0.00 0.00 0.00 58 1016.7
20260508172510 68 270 5.2 8.7 0.00 0.00 0.00 57 1016.7
20260508172010 68 246 5.2 8.7 0.00 0.00 0.00 56 1016.5
20260508171522 69 259 5.2 9.6 0.00 0.00 0.00 56 1016.6
20260508171010 69 248 7.0 12.2 0.00 0.00 0.00 55 1016.7
20260508170510 69 232 7.8 11.3 0.00 0.00 0.00 54 1016.8
20260508170009 69 226 7.0 10.4 0.00 0.00 0.00 54 1016.9
20260508165509 69 228 6.1 9.6 0.00 0.00 0.00 54 1016.9
20260508165008 69 259 5.2 7.8 0.00 0.00 0.00 54 1016.8
20260508164508 69 232 4.3 8.7 0.00 0.00 0.00 54 1016.9
20260508164008 69 255 6.1 9.6 0.00 0.00 0.00 53 1016.8
20260508163507 69 261 7.0 11.3 0.00 0.00 0.00 53 1016.9
20260508163007 70 259 7.8 11.3 0.00 0.00 0.00 52 1016.9
20260508162507 70 232 7.8 11.3 0.00 0.00 0.00 51 1016.7
20260508162007 70 240 6.1 9.6 0.00 0.00 0.00 52 1016.7
20260508161507 70 263 6.1 9.6 0.00 0.00 0.00 52 1016.7
20260508161008 70 263 7.0 13.0 0.00 0.00 0.00 51 1016.7
20260508160506 70 229 5.2 13.0 0.00 0.00 0.00 51 1016.6
20260508160012 70 209 7.0 11.3 0.00 0.00 0.00 51 1016.5
20260508155510 70 218 8.7 13.0 0.00 0.00 0.00 51 1016.7
20260508155007 70 221 7.0 12.2 0.00 0.00 0.00 51 1016.5
20260508154506 70 260 8.7 12.2 0.00 0.00 0.00 50 1016.6
20260508154006 71 200 7.8 11.3 0.00 0.00 0.00 50 1016.7
20260508153505 70 227 5.2 11.3 0.00 0.00 0.00 50 1016.7
20260508153005 70 256 8.7 13.0 0.00 0.00 0.00 51 1016.7
20260508152506 70 273 10.4 13.0 0.00 0.00 0.00 51 1016.7
20260508152103 70 267 9.6 12.2 0.00 0.00 0.00 51 1016.7
20260508151503 71 232 6.1 13.0 0.00 0.00 0.00 50 1016.8
20260508151004 71 263 9.6 13.0 0.00 0.00 0.00 50 1016.7
20260508150506 71 240 7.8 12.2 0.00 0.00 0.00 51 1016.7
20260508150003 71 239 7.0 12.2 0.00 0.00 0.00 50 1016.6
20260508145502 71 241 10.4 12.2 0.00 0.00 0.00 50 1016.5
20260508145001 72 233 8.7 15.6 0.00 0.00 0.00 50 1016.6
20260508144605 72 228 7.0 15.6 0.00 0.00 0.00 51 1016.5
20260508144100 73 265 7.8 12.2 0.00 0.00 0.00 50 1016.5
20260508143559 72 226 7.8 16.5 0.00 0.00 0.00 52 1016.5
20260508143101 73 224 9.6 16.5 0.00 0.00 0.00 52 1016.6
20260508142558 72 200 8.7 12.2 0.00 0.00 0.00 51 1016.5
20260508142100 72 227 8.7 12.2 0.00 0.00 0.00 51 1016.6
20260508141558 73 197 7.8 13.0 0.00 0.00 0.00 50 1016.6
20260508141056 73 240 7.8 13.9 0.00 0.00 0.00 48 1016.6
20260508140555 73 213 7.0 13.9 0.00 0.00 0.00 48 1016.7
20260508140103 73 273 9.6 13.0 0.00 0.00 0.00 49 1016.7
20260508135555 72 286 4.3 13.0 0.00 0.00 0.00 49 1016.7
20260508135054 73 254 8.7 13.0 0.00 0.00 0.00 47 1016.8
20260508134555 73 181 6.1 9.6 0.00 0.00 0.00 46 1016.8
20260508134052 73 211 5.2 13.0 0.00 0.00 0.00 49 1016.9
20260508133554 73 247 8.7 13.0 0.00 0.00 0.00 50 1017.0
20260508133056 72 246 6.1 14.8 0.00 0.00 0.00 49 1017.1
20260508132549 72 228 6.1 11.3 0.00 0.00 0.00 49 1017.1
20260508132048 73 266 9.6 11.3 0.00 0.00 0.00 47 1017.1
20260508131550 72 183 6.1 12.2 0.00 0.00 0.00 49 1017.2
20260508131047 72 202 7.8 13.9 0.00 0.00 0.00 48 1017.3
20260508130546 71 200 8.7 13.9 0.00 0.00 0.00 48 1017.4
20260508125648 72 273 7.0 13.9 0.00 0.00 0.00 47 1017.4
20260508125043 72 261 6.1 11.3 0.00 0.00 0.00 46 1017.5
20260508124549 71 208 6.1 13.0 0.00 0.00 0.00 46 1017.6
20260508124046 71 197 7.0 13.0 0.00 0.00 0.00 46 1017.7
20260508123542 71 198 7.8 16.5 0.00 0.00 0.00 46 1017.8
20260508123052 71 215 8.7 16.5 0.00 0.00 0.00 45 1017.9
20260508122541 72 219 8.7 15.6 0.00 0.00 0.00 45 1018.1
20260508122041 72 235 10.4 14.8 0.00 0.00 0.00 45 1018.1
20260508121544 72 215 8.7 14.8 0.00 0.00 0.00 45 1018.1
20260508121039 73 200 8.7 13.0 0.00 0.00 0.00 44 1018.2
20260508120539 73 248 5.2 12.2 0.00 0.00 0.00 45 1018.3
20260508120038 72 204 7.8 16.5 0.00 0.00 0.00 46 1018.2
20260508115537 71 211 8.7 16.5 0.00 0.00 0.00 45 1018.2
20260508115036 72 202 7.0 13.9 0.00 0.00 0.00 46 1018.3
20260508114545 72 234 7.8 13.9 0.00 0.00 0.00 45 1018.3
20260508114034 72 219 7.0 13.0 0.00 0.00 0.00 46 1018.0
20260508113533 71 221 4.3 7.0 0.00 0.00 0.00 51 1018.2
20260508113033 70 205 0.9 5.2 0.00 0.00 0.00 50 1018.1
20260508112531 70 130 1.7 6.1 0.00 0.00 0.00 50 1017.8
20260508112032 70 290 2.6 6.1 0.00 0.00 0.00 50 1018.7
20260508111531 70 285 0.9 3.5 0.00 0.00 0.00 51 1018.6
20260508111030 70 283 1.7 4.3 0.00 0.00 0.00 52 1018.6
20260508110531 69 304 2.6 6.1 0.00 0.00 0.00 52 1018.7
20260508110034 69 304 3.5 6.1 0.00 0.00 0.00 53 1019.0
20260508105529 69 257 2.6 5.2 0.00 0.00 0.00 53 1018.9
20260508105032 69 260 2.6 6.1 0.00 0.00 0.00 54 1019.1
20260508104529 69 263 3.5 6.1 0.00 0.00 0.00 53 1019.2
20260508104028 69 240 1.7 7.0 0.00 0.00 0.00 54 1019.2
20260508103528 69 254 4.3 7.8 0.00 0.00 0.00 54 1019.4
20260508103037 69 269 6.1 7.8 0.00 0.00 0.00 54 1019.5
20260508102528 69 252 5.2 7.8 0.00 0.00 0.00 54 1019.5
20260508102028 69 254 3.5 6.1 0.00 0.00 0.00 55 1019.4
20260508101526 69 232 2.6 7.0 0.00 0.00 0.00 55 1019.3
20260508101025 69 208 3.5 6.1 0.00 0.00 0.00 55 1019.3
20260508100525 69 204 3.5 8.7 0.00 0.00 0.00 55 1019.3
20260508100024 69 261 4.3 8.7 0.00 0.00 0.00 56 1019.5
20260508095524 68 219 3.5 7.8 0.00 0.00 0.00 57 1019.6
20260508095027 68 268 6.1 8.7 0.00 0.00 0.00 57 1019.6
20260508094539 68 246 6.1 8.7 0.00 0.00 0.00 57 1019.8
20260508094023 68 259 4.3 8.7 0.00 0.00 0.00 57 1020.0
20260508093523 68 237 5.2 8.7 0.00 0.00 0.00 56 1020.0
20260508093026 68 288 6.1 7.8 0.00 0.00 0.00 55 1020.1
20260508092522 68 253 6.1 7.8 0.00 0.00 0.00 55 1020.0
20260508092021 68 263 4.3 8.7 0.00 0.00 0.00 55 1020.0
20260508091539 68 243 6.1 8.7 0.00 0.00 0.00 55 1020.1
20260508091021 69 248 4.3 10.4 0.00 0.00 0.00 55 1020.1
20260508090521 68 227 5.2 10.4 0.00 0.00 0.00 56 1020.1
20260508090020 68 229 7.0 10.4 0.00 0.00 0.00 56 1020.3
20260508085522 67 221 4.3 8.7 0.00 0.00 0.00 59 1020.3
20260508085019 67 261 5.2 7.8 0.00 0.00 0.00 59 1020.3
20260508084516 67 256 2.6 7.0 0.00 0.00 0.00 61 1020.3
20260508084016 67 257 4.3 7.0 0.00 0.00 0.00 60 1020.3
20260508083516 67 246 3.5 7.0 0.00 0.00 0.00 60 1020.4
20260508083016 67 277 3.5 6.1 0.00 0.00 0.00 60 1020.4
20260508082519 67 273 3.5 6.1 0.00 0.00 0.00 60 1020.4
20260508082015 67 216 2.6 7.0 0.00 0.00 0.00 58 1020.3
20260508081526 67 218 3.5 8.7 0.00 0.00 0.00 58 1020.4
20260508081017 67 254 4.3 8.7 0.00 0.00 0.00 57 1020.5
20260508080514 67 276 4.3 7.8 0.00 0.00 0.00 56 1020.4
20260508080014 67 253 4.3 11.3 0.00 0.00 0.00 54 1020.5
20260508075514 67 258 7.0 11.3 0.00 0.00 0.00 55 1020.5
20260508075013 67 270 6.1 10.4 0.00 0.00 0.00 54 1020.5
20260508074513 67 265 7.8 10.4 0.00 0.00 0.00 53 1020.6
20260508074013 68 264 5.2 7.8 0.00 0.00 0.00 52 1020.5
20260508073511 68 211 4.3 7.8 0.00 0.00 0.00 50 1020.6
20260508073010 68 213 2.6 7.0 0.00 0.00 0.00 50 1020.6
20260508072508 67 246 3.5 7.0 0.00 0.00 0.00 50 1020.8
20260508072007 67 201 3.5 7.8 0.00 0.00 0.00 49 1021.0
20260508071517 67 248 4.3 7.8 0.00 0.00 0.00 48 1021.1
20260508071004 67 234 5.2 7.0 0.00 0.00 0.00 47 1021.1
20260508070504 67 219 4.3 7.8 0.00 0.00 0.00 46 1021.2
20260508070004 67 242 5.2 8.7 0.00 0.00 0.00 46 1021.2
20260508065505 67 249 5.2 9.6 0.00 0.00 0.00 47 1021.4
20260508065002 67 261 5.2 8.7 0.00 0.00 0.00 47 1021.3
20260508064505 67 265 6.1 8.7 0.00 0.00 0.00 47 1021.2
20260508064100 67 232 4.3 7.8 0.00 0.00 0.00 47 1021.1
20260508063559 67 265 4.3 7.8 0.00 0.00 0.00 46 1021.0
20260508063058 67 243 4.3 8.7 0.00 0.00 0.00 46 1020.9
20260508062557 67 244 6.1 8.7 0.00 0.00 0.00 47 1020.9
20260508062056 67 242 5.2 7.8 0.00 0.00 0.00 48 1020.8
20260508061557 67 273 4.3 7.0 0.00 0.00 0.00 50 1020.8
20260508061056 67 257 4.3 7.0 0.00 0.00 0.00 50 1020.7
20260508060555 67 280 4.3 7.0 0.00 0.00 0.00 50 1020.6
20260508060054 67 271 4.3 7.0 0.00 0.00 0.00 52 1020.5
20260508055557 67 307 3.5 6.1 0.00 0.00 0.00 54 1020.3
20260508055052 67 278 2.6 4.3 0.00 0.00 0.00 54 1020.0
20260508054607 67 278 1.7 5.2 0.00 0.00 0.00 56 1019.8
20260508054051 66 267 2.6 5.2 0.00 0.00 0.00 56 1019.6
20260508053550 66 254 2.6 3.5 0.00 0.00 0.00 55 1019.4
20260508053053 66 252 1.7 3.5 0.00 0.00 0.00 55 1019.3
20260508052549 66 286 0.9 2.6 0.00 0.00 0.00 55 1019.2
20260508052048 67 292 0.9 2.6 0.00 0.00 0.00 54 1019.1
20260508051548 67 219 0.9 2.6 0.00 0.00 0.00 54 1019.0
20260508051048 66 205 1.7 2.6 0.00 0.00 0.00 54 1018.9
20260508050547 66 191 0.0 1.7 0.00 0.00 0.00 55 1018.9
20260508050046 66 190 0.0 1.7 0.00 0.00 0.00 55 1019.0
20260508045545 65 190 0.0 2.6 0.00 0.00 0.00 56 1018.9
20260508045043 65 194 1.7 3.5 0.00 0.00 0.00 56 1018.8
20260508044544 66 211 1.7 2.6 0.00 0.00 0.00 55 1018.9
20260508044044 65 326 0.9 2.6 0.00 0.00 0.00 54 1018.9
20260508043539 65 332 0.9 2.6 0.00 0.00 0.00 57 1018.8
20260508043038 66 342 0.9 2.6 0.00 0.00 0.00 56 1018.7
20260508042537 66 10 0.9 2.6 0.00 0.00 0.00 52 1018.4
20260508042036 66 38 0.0 3.5 0.00 0.00 0.00 53 1018.4
20260508041538 65 12 1.7 3.5 0.00 0.00 0.00 56 1018.4
20260508041035 64 61 1.7 4.3 0.00 0.00 0.00 57 1018.3
20260508040535 64 71 1.7 4.3 0.00 0.00 0.00 61 1018.2
20260508040036 64 360 2.6 4.3 0.00 0.00 0.00 61 1018.2
20260508035534 65 355 1.7 4.3 0.00 0.00 0.00 57 1018.1
20260508035033 65 76 1.7 3.5 0.00 0.00 0.00 55 1017.9
20260508034538 65 67 0.9 2.6 0.00 0.00 0.00 57 1018.0
20260508034032 65 54 0.9 2.6 0.00 0.00 0.00 58 1017.9
20260508033532 65 48 0.9 4.3 0.00 0.00 0.00 59 1018.0
20260508033036 65 17 1.7 4.3 0.00 0.00 0.00 58 1018.0
20260508032533 65 31 1.7 3.5 0.00 0.00 0.00 59 1017.9
20260508032032 64 36 1.7 3.5 0.00 0.00 0.00 60 1018.0
20260508031536 64 11 2.6 3.5 0.00 0.00 0.00 60 1018.1
20260508031034 65 69 0.9 2.6 0.00 0.00 0.00 59 1018.0
20260508030531 65 88 0.0 2.6 0.00 0.00 0.00 57 1017.7
20260508030035 64 74 0.0 4.3 0.00 0.00 0.00 58 1017.7
20260508025535 64 71 2.6 4.3 0.00 0.00 0.00 60 1017.6
20260508025029 64 30 1.7 3.5 0.00 0.00 0.00 61 1018.0
20260508024529 63 46 0.0 2.6 0.00 0.00 0.00 64 1018.0
20260508024029 64 14 0.9 2.6 0.00 0.00 0.00 64 1018.0
20260508023529 64 72 0.9 2.6 0.00 0.00 0.00 60 1018.0
20260508023036 64 71 0.9 3.5 0.00 0.00 0.00 61 1018.1
20260508022528 64 46 0.9 3.5 0.00 0.00 0.00 61 1018.2
20260508022028 64 61 0.0 2.6 0.00 0.00 0.00 62 1018.1
20260508021530 64 59 0.9 2.6 0.00 0.00 0.00 63 1017.9
20260508021028 64 58 0.9 3.5 0.00 0.00 0.00 64 1018.1
20260508020527 63 61 1.7 3.5 0.00 0.00 0.00 65 1018.1
20260508020027 63 29 0.0 3.5 0.00 0.00 0.00 67 1018.2
20260508015527 64 44 1.7 3.5 0.00 0.00 0.00 66 1018.1
20260508015026 63 57 0.9 2.6 0.00 0.00 0.00 66 1018.1
20260508014525 63 57 0.0 1.7 0.00 0.00 0.00 67 1018.1
20260508014023 63 58 0.0 2.6 0.00 0.00 0.00 67 1018.4
20260508013523 63 57 0.0 2.6 0.00 0.00 0.00 67 1018.3
20260508013023 63 52 0.9 2.6 0.00 0.00 0.00 67 1018.4
20260508012525 64 56 0.9 2.6 0.00 0.00 0.00 67 1018.5
20260508012022 64 55 0.9 1.7 0.00 0.00 0.00 67 1018.5
20260508011521 64 54 0.0 1.7 0.00 0.00 0.00 67 1018.6
20260508011021 64 49 0.0 1.7 0.00 0.00 0.00 67 1018.7
20260508010521 64 46 0.0 0.0 0.00 0.00 0.00 67 1018.8
20260508010022 64 44 0.0 0.0 0.00 0.00 0.00 67 1018.8
20260508005520 64 43 0.0 0.9 0.00 0.00 0.00 66 1018.7
20260508005020 64 43 0.0 1.7 0.00 0.00 0.00 67 1018.9
20260508004519 64 34 0.0 1.7 0.00 0.00 0.00 66 1018.9
20260508004020 64 33 0.0 1.7 0.00 0.00 0.00 66 1018.9
20260508003519 64 29 0.0 1.7 0.00 0.00 0.00 66 1018.8
20260508003018 64 26 0.0 1.7 0.00 0.00 0.00 66 1018.8
20260508002518 64 17 0.0 2.6 0.00 0.00 0.00 66 1018.8
20260508002018 64 15 0.9 2.6 0.00 0.00 0.00 66 1018.8
20260508001536 64 14 0.9 3.5 0.00 0.00 0.00 66 1018.9
20260508001017 64 346 0.0 2.6 0.00 0.00 0.00 66 1018.8
20260508000516 64 282 0.0 0.0 0.00 0.00 0.00 66 1018.8
20260508000016 64 279 0.0 1.7 0.00 0.00 0.00 66 1019.0
20260507235516 64 279 0.0 1.7 0.00 0.00 0.00 66 1019.1
20260507235017 64 279 0.0 5.2 0.00 0.00 0.00 66 1019.2
20260507234514 64 279 0.9 5.2 0.00 0.00 0.00 65 1019.3
20260507234014 64 277 1.7 6.1 0.00 0.00 0.00 65 1019.4
20260507233513 64 268 2.6 6.1 0.00 0.00 0.00 65 1019.4
20260507233021 64 271 2.6 3.5 0.00 0.00 0.00 64 1019.6
20260507232511 64 279 1.7 5.2 0.00 0.00 0.00 63 1019.4
20260507232011 64 271 1.7 5.2 0.00 0.00 0.00 63 1019.5
20260507231513 65 282 1.7 2.6 0.00 0.00 0.00 63 1019.6
20260507231010 65 281 0.0 1.7 0.00 0.00 0.00 62 1019.4
20260507230513 65 281 0.0 1.7 0.00 0.00 0.00 62 1019.5
20260507230022 65 282 0.9 2.6 0.00 0.00 0.00 62 1019.5
20260507225508 65 282 0.9 2.6 0.00 0.00 0.00 61 1019.6
20260507225010 65 282 0.9 2.6 0.00 0.00 0.00 61 1019.6
20260507224512 65 284 0.9 3.5 0.00 0.00 0.00 61 1019.7
20260507224007 65 284 1.7 4.3 0.00 0.00 0.00 61 1019.7
20260507223507 65 289 1.7 4.3 0.00 0.00 0.00 60 1019.7
20260507223006 65 273 1.7 3.5 0.00 0.00 0.00 60 1019.7
20260507222505 65 281 1.7 3.5 0.00 0.00 0.00 59 1019.7
20260507222005 65 273 1.7 3.5 0.00 0.00 0.00 59 1019.8
20260507221506 65 267 1.7 3.5 0.00 0.00 0.00 59 1019.8
20260507221003 65 271 1.7 5.2 0.00 0.00 0.00 58 1019.9
20260507220503 65 273 2.6 5.2 0.00 0.00 0.00 58 1019.9
20260507220003 65 273 2.6 5.2 0.00 0.00 0.00 57 1019.9
20260507215503 65 265 2.6 5.2 0.00 0.00 0.00 57 1020.0
20260507215100 65 250 2.6 4.3 0.00 0.00 0.00 57 1020.1
20260507214559 65 259 2.6 3.5 0.00 0.00 0.00 56 1020.2
20260507214100 65 268 1.7 3.5 0.00 0.00 0.00 55 1020.2
20260507213601 66 271 1.7 6.1 0.00 0.00 0.00 54 1020.2
20260507213100 66 288 3.5 6.1 0.00 0.00 0.00 54 1020.3
20260507212556 66 267 2.6 5.2 0.00 0.00 0.00 53 1020.4
20260507212056 66 273 1.7 5.2 0.00 0.00 0.00 52 1020.4
20260507211555 66 291 1.7 3.5 0.00 0.00 0.00 53 1020.3
20260507211054 66 282 1.7 3.5 0.00 0.00 0.00 52 1020.4
20260507210554 66 269 1.7 3.5 0.00 0.00 0.00 52 1020.3
20260507210053 66 240 0.9 2.6 0.00 0.00 0.00 52 1020.4
20260507205553 66 238 1.7 2.6 0.00 0.00 0.00 51 1020.4
20260507205053 66 161 0.0 1.7 0.00 0.00 0.00 50 1020.3
20260507204552 67 156 0.9 1.7 0.00 0.00 0.00 50 1020.2
20260507204052 67 154 0.0 1.7 0.00 0.00 0.00 50 1020.3
20260507203552 66 137 0.0 1.7 0.00 0.00 0.00 51 1020.3
20260507203051 66 137 0.9 2.6 0.00 0.00 0.00 51 1020.3
20260507202551 66 136 0.0 2.6 0.00 0.00 0.00 50 1020.3
20260507202051 66 142 0.9 2.6 0.00 0.00 0.00 50 1020.4
20260507201551 66 134 0.9 3.5 0.00 0.00 0.00 50 1020.4
20260507201051 66 136 0.9 6.1 0.00 0.00 0.00 50 1020.3
20260507200551 66 127 1.7 6.1 0.00 0.00 0.00 50 1020.3
20260507200050 66 134 1.7 6.1 0.00 0.00 0.00 49 1020.2
20260507195549 66 136 3.5 6.1 0.00 0.00 0.00 49 1020.1
20260507195052 66 126 2.6 6.1 0.00 0.00 0.00 49 1020.1
20260507194548 67 136 2.6 6.1 0.00 0.00 0.00 49 1020.2
20260507194046 67 121 1.7 6.1 0.00 0.00 0.00 49 1020.0
20260507193546 67 94 1.7 6.1 0.00 0.00 0.00 49 1020.0
20260507193047 67 94 2.6 5.2 0.00 0.00 0.00 49 1019.8
20260507192547 67 68 0.0 0.0 0.00 0.00 0.00 49 1020.0
20260507192046 67 65 0.0 1.7 0.00 0.00 0.00 49 1020.0
20260507191546 67 47 0.0 2.6 0.00 0.00 0.00 50 1019.9
20260507191047 67 46 0.9 2.6 0.00 0.00 0.00 50 1019.7
20260507190545 67 40 1.7 3.5 0.00 0.00 0.00 49 1019.7
20260507190044 68 34 1.7 3.5 0.00 0.00 0.00 50 1019.9
20260507185644 68 19 0.9 3.5 0.00 0.00 0.00 50 1019.9
20260507185044 68 314 0.9 3.5 0.00 0.00 0.00 49 1019.9
20260507184543 68 301 0.9 3.5 0.00 0.00 0.00 49 1019.9
20260507184043 68 321 1.7 3.5 0.00 0.00 0.00 50 1019.8
20260507183543 68 318 1.7 3.5 0.00 0.00 0.00 50 1019.8
20260507183051 68 277 1.7 3.5 0.00 0.00 0.00 50 1019.8
20260507182543 68 299 0.9 6.1 0.00 0.00 0.00 51 1019.7
20260507182041 68 298 2.6 7.0 0.00 0.00 0.00 51 1019.8